Regional Weather Roundup
Issued by NWS

Home | Current Version | Previous Version | Graphics & Text | Print | Product List | Glossary On
Versions: 1 2 3 4 5 6 7 8 9 10 11 12 13 14 15 16 17 18 19 20 21 22 23 24 25 26 27 28 29 30 31 32 33 34 35 36 37 38 39 40 41 42 43 44 45 46 47 48 49 50
000
ASUS43 KMPX 280201
RWRMN
WEATHER ROUNDUP FOR MINNESOTA
NATIONAL WEATHER SERVICE TWIN CITIES/CHANHASSEN MN
900 PM CDT SUN MAY 27 2018


NOTE: "FAIR" INDICATES FEW OR NO CLOUDS BELOW 12,000 FEET WITH NO
SIGNIFICANT WEATHER AND/OR OBSTRUCTIONS TO VISIBILITY. N/A MEANS
CURRENT SKY AND/OR WEATHER CONDITIONS ARE NOT AVAILABLE.

MNZ060>063-068>070-280300-
   Twin Cities Metro

CITY           SKY/WX    TMP DP  RH WIND       PRES   REMARKS
TWIN CITIES    MOCLDY    85  64  49 SE8       29.79S
ST PAUL        FAIR      82  64  54 SE8       29.79S
CRYSTAL        FAIR      86  59  39 SE9       29.77S
BLAINE         PTCLDY    84  61  45 SE8       29.78F
LAKEVILLE      FAIR      82  57  42 SE7       29.81S
EDEN PRAIRIE   FAIR      85  60  42 SE13      29.78S
SOUTH ST PAUL  FAIR      84  62  47 S5        29.80S
LAKE ELMO      FAIR      82  64  54 SE6       29.82S
$$
MNZ001>005-007-008-013>017-022>024-027-028-280300-
   Northwest Minnesota

CITY           SKY/WX    TMP DP  RH WIND       PRES   REMARKS
BEMIDJI        CLOUDY    71  65  81 CALM      29.85S
HALLOCK        FAIR      79  59  50 NE5       29.85R
ROSEAU         FAIR      75  63  64 E5        29.87S
WARROAD        FAIR      70  61  73 CALM      29.88S
THIEF RVR FALL FAIR      76  60  57 NE8       29.87R
CROOKSTON      FAIR      79  61  53 NE6       29.84R
FOSSTON        FAIR      73  57  56 CALM      29.86R
DETROIT LAKES  FAIR      77  63  61 NE9       29.84R
MOORHEAD       FAIR      79  63  57 NE9       29.80S
PARK RAPIDS    FAIR      75  61  61 NE6       29.83R
MAHNOMEN       CLOUDY    74  62  66 NE6       29.83S
$$
MNZ006-009>011-018-025>026-280300-
   North Central Minnesota

CITY           SKY/WX    TMP DP  RH WIND       PRES   REMARKS
BAUDETTE         N/A    N/A N/A N/A MISG      29.87R
FLAG ISLAND    FAIR      72  55  56 CALM      29.87R
INTL FALLS     FAIR      67  62  84 CALM      29.86S
WASKISH        FAIR      73  55  53 CALM      29.86R
BIG FORK       FAIR      73  63  68 CALM      29.85S
GRAND RAPIDS   MOCLDY    71  63  75 SE5       29.86F
CRANE LAKE     FAIR      68  63  83 CALM      29.88S
ORR            FAIR      70  59  68 CALM      29.84S
COOK           FAIR      73  61  64 CALM      29.86F
WALKER         CLOUDY    71  62  73 NE5       29.85S
$$
MNZ012-019>021-037-280300-
   Northeast Minnesota

CITY           SKY/WX    TMP DP  RH WIND       PRES   REMARKS
DULUTH         FAIR      74  56  53 E3        29.86R
ELY            FAIR      70  57  64 CALM      29.88R
HIBBING        FAIR      69  60  73 CALM      29.84F
EVELETH        FAIR      72  61  68 CALM      29.87F
DULUTH HARBOR  FAIR      54  50  87 CALM      29.86R
TWO HARBORS    FAIR      70  61  73 CALM      29.84R
SILVER BAY     FAIR      70  61  73 CALM      29.84R
GRAND MARAIS     N/A     43  40  89 CALM      29.84R
G MARAIS ARPRT FAIR      66  54  63 CALM      29.90R
$$
MNZ029>031-032-039>041-046>048-054>057-064-280300-
   West Central Minnesota

CITY           SKY/WX    TMP DP  RH WIND       PRES   REMARKS
FERGUS FALLS   FAIR      79  61  53 E14G24    29.71S
MORRIS         PTCLDY    82  63  51 E9        29.73R
ALEXANDRIA     FAIR      85  57  38 MISG      29.78S
ELBOW LAKE     FAIR      83  57  40 SE10      29.74S
WADENA         FAIR      73  61  64 NE7       29.81S
GLENWOOD       FAIR      79  61  53 SE5       29.78S
APPLETON       PTCLDY    84  59  42 CALM      29.72R
BENSON         PTCLDY    88  54  31 S8        29.74S
ORTONVILLE     MOCLDY    90  54  29 SW3       29.73R
MADISON        CLOUDY    91  54  27 CALM      29.73R
WILLMAR        FAIR      84  57  39 SE10      29.77S
$$
MNZ033>034-036-042>043-049>051-058-059-280300-
   Central Minnesota

CITY           SKY/WX    TMP DP  RH WIND       PRES   REMARKS
ST CLOUD       FAIR      83  59  44 SE3       29.77S
SAUK CENTRE    FAIR      79  60  52 E6        29.78S
PAYNESVILLE    FAIR      83  61  47 SE7       29.78R
AITKIN         FAIR      66  61  82 N3        29.82S
PINE RIVER     FAIR      70  63  78 CALM      29.86S
BRAINERD       FAIR      75  62  64 NE5       29.83R
STAPLES        FAIR      75  61  60 NE5       29.81S
LONG PRAIRIE   FAIR      77  61  57 E3        29.79S
LITTLE FALLS   FAIR      75  63  64 E3        29.79S
LITCHFIELD     FAIR      84  63  48 SE8       29.76F
BUFFALO        FAIR      83  59  43 SE7       29.78F
MAPLE LAKE     FAIR      82  65  55 CALM      29.78S
HUTCHINSON     FAIR      83  64  52 E9        29.78F
$$
MNZ037-044-045-052-053-280300-
   East Central Minnesota

CITY           SKY/WX    TMP DP  RH WIND       PRES   REMARKS
PRINCETON      FAIR      79  63  57 CALM      29.78S
MORA           FAIR      75  61  60 CALM      29.83R
CAMBRIDGE      FAIR      84  64  51 CALM      29.79S
RUSH CITY      FAIR      78  62  59 CALM      29.81R
MOOSE LAKE     FAIR      70  64  83 CALM      29.82S
HINCKLEY       FAIR      73  64  73 CALM      29.82S
CLOQUET        FAIR      72  55  56 CALM      29.86R
MCGREGOR       FAIR      77  59  53 CALM      29.84S
$$
MNZ071>073-080-081-089-090-097-098-280300-
   Southwest Minnesota

CITY           SKY/WX    TMP DP  RH WIND       PRES   REMARKS
MONTEVIDEO     CLOUDY    88  55  33 S7        29.74R
CANBY          MOCLDY    88  63  43 CALM      29.75R
MARSHALL       CLOUDY    88  63  43 SW6       29.74S
REDWOOD FALLS  CLOUDY    86  58  38 SE9       29.74S
OLIVIA         CLOUDY    88  55  33 SE5       29.75S
PIPESTONE      CLOUDY    84  59  42 SW6       29.80S
WINDOM         CLOUDY    88  57  35 S6        29.79R
WORTHINGTON    CLOUDY    89  58  34 S8        29.81R
JACKSON        PTCLDY    86  57  37 SE7       29.82R
$$
MNZ065>067-074>077-082>085-091>093-280300-
   South Central Minnesota

CITY           SKY/WX    TMP DP  RH WIND       PRES   REMARKS
MANKATO        FAIR      89  55  31 SE15      29.79S
NEW ULM        MOCLDY    90  50  25 SE10      29.76S
ST JAMES       MOCLDY    90  54  29 SE10      29.79R
FAIRMONT       CLOUDY    89  57  33 SE15      29.80S
GLENCOE        FAIR      83  62  48 E8        29.77S
FARIBAULT      FAIR      84  55  37 CALM      29.82S
WASECA         FAIR      86  54  32 SE15      29.82S
ALBERT LEA     FAIR      88  48  25 SE14      29.84S
$$
MNZ078>079-086>088-094>096-280300-
   Southeast Minnesota

CITY           SKY/WX    TMP DP  RH WIND       PRES   REMARKS
ROCHESTER      FAIR      79  57  46 SE9       29.86S
RED WING       FAIR      81  55  41 E3        29.81S
STANTON        FAIR      85  52  31 SE8       29.80F
DODGE CENTER   FAIR      82  48  30 CALM      29.86R
WINONA         FAIR      77  64  65 CALM      29.85R
AUSTIN         FAIR      84  54  34 SE3       29.85S
PRESTON        FAIR      81  53  37 SE6       29.88S
$$
ABBREVIATIONS USED IN REMARKS
   TC - TEMPERATURES IN CELSIUS
  WCI - WIND CHILL INDEX
   HX - HEAT INDEX
  VSB - VISIBILITY
$$



USA.gov is the U.S. government's official web portal to all federal, state and local government web resources and services.